FW1737 Weather Reports


Display with metric or nautical units.
time (UTC)temp
F
wind
direction
speed
MPH
gust
MPH
rain 1hr
in
rain 24hr
in
rain mn
in
humidity
%
barometer
mb
20260505230008 62 200 14.0 26.0 0.00 0.00 0.00 69 1012.1
20260505224506 63 231 15.0 26.0 0.00 0.00 0.00 65 1012.1
20260505223001 64 239 11.0 29.0 0.00 0.00 0.00 60 1011.7
20260505221601 65 200 11.0 25.0 0.00 0.00 0.00 56 1011.6
20260505220059 66 200 13.0 27.0 0.00 0.00 0.00 51 1011.7
20260505214624 68 185 9.0 21.0 0.00 0.00 0.00 48 1011.2
20260505213103 69 275 10.0 23.0 0.00 0.00 0.00 46 1011.3
20260505211556 69 204 13.0 20.0 0.00 0.00 0.00 44 1011.5
20260505204604 70 230 18.0 28.0 0.00 0.00 0.00 41 1011.5
20260505203056 71 270 11.0 31.0 0.00 0.00 0.00 41 1011.3
20260505201555 71 209 17.0 29.0 0.00 0.00 0.00 41 1011.7
20260505194554 71 202 13.0 26.0 0.00 0.00 0.00 44 1011.5
20260505193050 71 206 17.0 27.0 0.00 0.00 0.00 43 1011.3
20260505191544 72 182 20.0 28.0 0.00 0.00 0.00 42 1011.1
20260505190043 72 240 16.0 30.0 0.00 0.00 0.00 43 1011.1
20260505184540 73 236 15.0 29.0 0.00 0.00 0.00 42 1011.0
20260505183039 73 225 16.0 29.0 0.00 0.00 0.00 40 1010.9
20260505181540 74 238 13.0 25.0 0.00 0.00 0.00 39 1010.7
20260505180057 75 189 16.0 25.0 0.00 0.00 0.00 37 1010.7
20260505174551 75 219 14.0 27.0 0.00 0.00 0.00 39 1010.9
20260505173042 75 223 13.0 27.0 0.00 0.00 0.00 38 1011.0
20260505171532 75 173 13.0 25.0 0.00 0.00 0.00 40 1010.8
20260505170029 75 205 11.0 21.0 0.00 0.00 0.00 40 1010.6
20260505164527 74 204 9.0 23.0 0.00 0.00 0.00 45 1010.9
20260505163025 73 227 9.0 19.0 0.00 0.00 0.00 47 1010.8
20260505161522 72 243 10.0 19.0 0.00 0.00 0.00 49 1010.9
20260505153013 69 200 8.0 12.0 0.00 0.00 0.00 56 1011.1
20260505151512 67 232 10.0 14.0 0.00 0.00 0.00 54 1011.1
20260505140106 63 257 8.0 17.0 0.00 0.00 0.00 64 1011.1
20260505124539 57 224 7.0 13.0 0.00 0.09 0.00 72 1011.3
20260505123037 56 211 8.0 13.0 0.00 0.09 0.00 73 1011.4
20260505121533 55 176 7.0 11.0 0.00 0.09 0.00 75 1011.5
20260505120033 54 196 6.0 12.0 0.00 0.09 0.00 77 1011.1
20260505114527 53 178 7.0 13.0 0.00 0.15 0.00 79 1011.1
20260505113025 52 193 4.0 10.0 0.00 0.15 0.00 79 1011.2
20260505111520 51 208 5.0 8.0 0.00 0.15 0.00 81 1011.1
20260505101526 44 184 3.0 6.0 0.00 0.23 0.00 95 1010.7
20260505100019 41 189 0.0 3.0 0.00 0.23 0.00 96 1010.5
20260505094508 40 189 1.0 4.0 0.00 0.28 0.00 95 1010.3
20260505093020 40 173 0.0 3.0 0.00 0.28 0.00 94 1010.2
20260505091504 40 173 0.0 2.0 0.00 0.28 0.00 94 1010.1
20260505090002 40 173 0.0 0.0 0.00 0.28 0.00 93 1010.1
20260505084600 40 173 2.0 3.0 0.00 0.35 0.00 92 1009.9
20260505083103 41 242 1.0 3.0 0.00 0.35 0.00 90 1009.8
20260505081600 43 246 2.0 3.0 0.00 0.35 0.00 87 1009.8
20260505074547 45 236 2.0 6.0 0.00 0.38 0.00 84 1009.3
20260505073047 46 221 3.0 9.0 0.00 0.38 0.00 84 1008.9
20260505071552 46 229 3.0 11.0 0.00 0.38 0.00 83 1008.7
20260505070045 47 214 5.0 14.0 0.00 0.38 0.00 82 1008.6
20260505064535 47 252 7.0 15.0 0.00 0.41 0.00 82 1008.4
20260505063036 47 291 4.0 12.0 0.00 0.41 0.00 82 1008.2
20260505061549 48 210 7.0 16.0 0.00 0.41 0.00 81 1007.8
20260505060027 48 276 6.0 17.0 0.00 0.41 0.00 80 1007.6
20260505054524 48 254 7.0 18.0 0.00 0.43 0.00 80 1007.3
20260505053022 48 260 8.0 16.0 0.00 0.43 0.00 80 1007.2
20260505051533 48 259 7.0 15.0 0.00 0.43 0.00 80 1006.8
20260505041507 49 212 7.0 15.0 0.00 0.44 0.00 79 1005.9
20260505040005 49 288 5.0 12.0 0.00 0.44 0.00 79 1005.7
20260505034502 49 286 4.0 11.0 0.00 0.50 0.00 78 1005.6
20260505033101 49 219 5.0 20.0 0.00 0.50 0.00 77 1005.3
20260505031559 49 217 5.0 12.0 0.00 0.50 0.00 77 1005.1
20260505030053 49 232 6.0 15.0 0.00 0.50 0.00 76 1005.0
20260505024554 50 221 5.0 17.0 0.00 0.56 0.01 76 1004.8
20260505023051 50 255 9.0 17.0 0.00 0.56 0.01 75 1004.8
20260505021552 51 319 5.0 17.0 0.00 0.56 0.01 74 1004.5
20260505020054 51 248 5.0 15.0 0.00 0.56 0.01 75 1004.5
20260505014551 51 244 3.0 12.0 0.00 0.74 0.01 75 1004.4
20260505013045 51 302 7.0 14.0 0.00 0.74 0.01 74 1004.2
20260505011545 51 213 7.0 15.0 0.00 0.74 0.01 73 1004.1
20260505010053 51 241 6.0 14.0 0.00 0.74 0.01 73 1004.2
20260505004542 51 213 7.0 16.0 0.00 0.89 0.01 73 1004.0
20260505003042 50 225 6.0 14.0 0.00 0.89 0.01 71 1003.9
20260505001540 50 238 4.0 9.0 0.00 0.89 0.01 70 1003.8
20260505000044 51 215 4.0 12.0 0.00 0.89 0.01 70 1003.4
20260504234535 51 268 5.0 15.0 0.00 0.94 0.01 70 1003.1
20260504233038 51 239 10.0 20.0 0.00 0.94 0.01 70 1002.8
20260504231531 51 296 8.0 20.0 0.00 0.94 0.01 69 1002.6